Powrót do katalogu

STARLINK-11540

AktywnyŁącznośćVLEO
NORAD 62564·PAYLOAD·🇺🇸 United States

Wystrzelony Jan 10, 2025 z Cape Canaveral Space Force Station

Loading…

Następne Przeloty (najbliższe 24 godziny)

TLE

ŚwieżeSource: CelesTrak SupGP

Epoka: Sep 15, 2026, 03:31 UTC

1 62564C 25006L   26258.14701389 -.00041793  00000+0 -32434-3 0  2584
2 62564  43.0006  78.0637 0001712 271.4043 222.5862 15.70878120    18

Śledź STARLINK-11540 w czasie rzeczywistym z AllMySat

Download on the App Store